Torna al catalogo

STARLINK-31878

AttivoComunicazioniVLEO
NORAD 60031·PAYLOAD·🇺🇸 United States

Lanciato Jun 8, 2024 da Cape Canaveral Space Force Station

Loading…

Prossimi Passaggi (prossime 24 ore)

TLE

AggiornatoSource: CelesTrak SupGP

Epoca: Sep 14, 2026, 14:25 UTC

1 60031C 24111R   26257.60118056 -.00021275  00000+0 -62933-3 0  2579
2 60031  53.1574 222.9887 0001636 105.3874 193.8529 15.34363032    17

Traccia STARLINK-31878 in tempo reale con AllMySat

Download on the App Store